Tracking 34717 objects as of 14-Jul-2026
HD Live streaming from Space Station
objects crossing your sky now

SCOUT A-1 DEB

Track SCOUT A-1 DEB now!
10-day predictions


NORAD ID: 18496
Int'l Code: 1973-081D
Perigee: 866.4 km
Apogee: 1,066.8 km
Inclination: 89.9 °
Period: 104.3 minutes
Semi major axis: 7337 km
RCS: 0.052 m2 (small)
Launch date: October 30, 1973
Source: United States (US)
Launch site: AIR FORCE WESTERN TEST RANGE (AFWTR)

Note: This is SATELLITE DEBRIS
Your satellite tracking list
Your tracking list is empty




NASA's NSSDC Master Catalog

Two Line Element Set (TLE):
1 18496U 73081D   26194.82133028  .00000134  00000-0  10748-3 0  9997
2 18496  89.9136 112.7807 0136586 118.0676 306.5719 13.81247200931013
Source of the keplerian elements: AFSPC